Weather History for Manitowoc, WI

Change the Weather History Date:

Sunday, November 25, 2012

  Actual Average Record
Temperature  
Mean Temperature 30 °F -  
Max Temperature 35 °F 40 °F 54 °F (1984)
Min Temperature 26 °F 26 °F 2 °F (1950)
Degree Days  
Heating Degree Days 34    
Moisture  
Dew Point 20 °F    
Average Humidity 67    
Maximum Humidity 86    
Minimum Humidity 55    
Precipitation  
Precipitation 0.00 in - - ()
Sea Level Pressure  
Sea Level Pressure 29.89 in    
Wind  
Wind Speed 8 mph (West)    
Max Wind Speed 17 mph    
Max Gust Speed 23 mph    
Visibility 10 miles    
Events      
Averages and records for this station are not official NWS values.
T = Trace of Precipitation, MM = Missing Value Source: NWS Daily Summary

Daily Weather History Graph

Daily Weather History Graph

Search for Another Location

Airport:

Trip Planner

Search our weather history database for the weather conditions in past years. The results will help you decide how hot, cold, wet, or windy it might be!

Date:

Astronomy

Nov. 25, 2012 Rise Set
Actual Time 6:59 AM CST 4:16 PM CST
Civil Twilight 6:27 AM CST 4:48 PM CST
Nautical Twilight 5:51 AM CST 5:23 PM CST
Astronomical Twilight 5:16 AM CST 5:58 PM CST
Moon 2:36 PM CST (11/25) 4:08 AM CST (11/25)
Length of Visible Light 10h 20m
Length of Day
9h 16m
Waxing Gibbous, 93% of the Moon is Illuminated
Nov 25
Waxing Gibbous
Nov 28
Full
Dec 6
Last Quarter
Dec 13
New
Dec 19
First Quarter

Hourly Weather History & Observations

Time (CST) Temp. Windchill Dew Point Humidity Pressure Visibility Wind Dir Wind Speed Gust Speed Precip Events Conditions
12:15 AM 28.4 °F 23.3 °F 17.6 °F 64% 29.91 in 10.0 mi South 4.6 mph - N/A   Overcast
12:55 AM 28.4 °F 24.6 °F 17.6 °F 64% 29.88 in 10.0 mi South 3.5 mph - N/A   Overcast
1:15 AM 28.4 °F 22.2 °F 17.6 °F 64% 29.86 in 10.0 mi South 5.8 mph - N/A   Overcast
1:35 AM 28.4 °F 22.2 °F 17.6 °F 64% 29.86 in 10.0 mi SSW 5.8 mph - N/A   Overcast
1:55 AM 28.4 °F 22.2 °F 19.4 °F 69% 29.86 in 5.0 mi SSW 5.8 mph - N/A   Overcast
2:15 AM 26.6 °F 20.0 °F 21.2 °F 80% 29.85 in 3.0 mi South 5.8 mph - N/A   Overcast
2:35 AM 26.6 °F 20.0 °F 21.2 °F 80% 29.85 in 2.0 mi South 5.8 mph - N/A   Overcast
2:55 AM 26.6 °F 21.2 °F 23.0 °F 86% 29.84 in 2.5 mi South 4.6 mph - N/A   Overcast
3:15 AM 26.6 °F 20.0 °F 23.0 °F 86% 29.83 in 3.0 mi SSW 5.8 mph - N/A   Overcast
3:35 AM 26.6 °F 18.2 °F 23.0 °F 86% 29.82 in 10.0 mi SSW 8.1 mph - N/A   Overcast
3:55 AM 26.6 °F 20.0 °F 23.0 °F 86% 29.81 in 10.0 mi SW 5.8 mph - N/A   Overcast
4:15 AM 26.6 °F 20.0 °F 23.0 °F 86% 29.81 in 10.0 mi SW 5.8 mph - N/A   Overcast
4:35 AM 26.6 °F 19.1 °F 23.0 °F 86% 29.81 in 10.0 mi SW 6.9 mph - N/A   Overcast
4:55 AM 28.4 °F 21.2 °F 23.0 °F 80% 29.81 in 10.0 mi SW 6.9 mph - N/A   Overcast
5:15 AM 28.4 °F 21.2 °F 23.0 °F 80% 29.80 in 10.0 mi SW 6.9 mph - N/A   Overcast
5:35 AM 28.4 °F 21.2 °F 23.0 °F 80% 29.80 in 10.0 mi WSW 6.9 mph - N/A   Overcast
5:55 AM 28.4 °F 21.2 °F 21.2 °F 74% 29.80 in 10.0 mi WSW 6.9 mph - N/A   Overcast
6:15 AM 28.4 °F 20.4 °F 21.2 °F 74% 29.80 in 10.0 mi WSW 8.1 mph - N/A   Overcast
6:35 AM 28.4 °F 21.2 °F 21.2 °F 74% 29.80 in 10.0 mi WSW 6.9 mph - N/A   Overcast
6:55 AM 28.4 °F 22.2 °F 21.2 °F 74% 29.80 in 10.0 mi WSW 5.8 mph - N/A   Overcast
7:15 AM 28.4 °F 22.2 °F 21.2 °F 74% 29.80 in 10.0 mi WSW 5.8 mph - N/A   Overcast
7:35 AM 28.4 °F 22.2 °F 21.2 °F 74% 29.81 in 10.0 mi WSW 5.8 mph - N/A   Overcast
7:55 AM 30.2 °F 23.4 °F 21.2 °F 69% 29.82 in 10.0 mi WSW 6.9 mph - N/A   Overcast
8:15 AM 30.2 °F 21.3 °F 21.2 °F 69% 29.82 in 10.0 mi WSW 10.4 mph - N/A   Overcast
8:35 AM 30.2 °F 22.6 °F 21.2 °F 69% 29.83 in 10.0 mi West 8.1 mph - N/A   Overcast
8:55 AM 30.2 °F 21.9 °F 21.2 °F 69% 29.84 in 10.0 mi West 9.2 mph - N/A   Overcast
9:15 AM 32.0 °F 23.6 °F 21.2 °F 64% 29.84 in 10.0 mi West 10.4 mph - N/A   Overcast
9:35 AM 32.0 °F 24.8 °F 21.2 °F 64% 29.84 in 10.0 mi West 8.1 mph - N/A   Overcast
9:55 AM 32.0 °F 23.6 °F 21.2 °F 64% 29.84 in 10.0 mi West 10.4 mph - N/A   Overcast
10:15 AM 32.0 °F 24.2 °F 21.2 °F 64% 29.84 in 10.0 mi WNW 9.2 mph - N/A   Overcast
10:35 AM 32.0 °F 23.0 °F 21.2 °F 64% 29.84 in 10.0 mi WNW 11.5 mph - N/A   Overcast
10:55 AM 33.8 °F 25.3 °F 21.2 °F 60% 29.83 in 10.0 mi WNW 11.5 mph - N/A   Overcast
11:15 AM 33.8 °F 24.8 °F 21.2 °F 60% 29.83 in 10.0 mi West 12.7 mph - N/A   Overcast
11:35 AM 33.8 °F 26.4 °F 21.2 °F 60% 29.83 in 10.0 mi West 9.2 mph - N/A   Overcast
11:55 AM 33.8 °F 24.3 °F 21.2 °F 60% 29.83 in 10.0 mi West 13.8 mph 18.4 mph N/A   Overcast
12:15 PM 33.8 °F 24.3 °F 23.0 °F 65% 29.84 in 10.0 mi WNW 13.8 mph 21.9 mph N/A   Overcast
12:35 PM 33.8 °F 24.8 °F 21.2 °F 60% 29.84 in 10.0 mi WNW 12.7 mph 17.3 mph N/A   Overcast
12:55 PM 33.8 °F 23.9 °F 21.2 °F 60% 29.84 in 10.0 mi West 15.0 mph 18.4 mph N/A   Overcast
1:15 PM 33.8 °F 23.2 °F 21.2 °F 60% 29.85 in 10.0 mi WNW 17.3 mph 23.0 mph N/A   Overcast
1:35 PM 33.8 °F 23.9 °F 21.2 °F 60% 29.84 in 10.0 mi West 15.0 mph 20.7 mph N/A   Overcast
1:55 PM 33.8 °F 23.9 °F 21.2 °F 60% 29.85 in 10.0 mi West 15.0 mph 18.4 mph N/A   Scattered Clouds
2:35 PM 35.6 °F 27.5 °F 21.2 °F 56% 29.86 in 10.0 mi West 11.5 mph - N/A   Scattered Clouds
2:55 PM 33.8 °F 24.3 °F 21.2 °F 60% 29.86 in 10.0 mi West 13.8 mph 19.6 mph N/A   Partly Cloudy
3:15 PM 33.8 °F 25.8 °F 21.2 °F 60% 29.88 in 10.0 mi NW 10.4 mph - N/A   Scattered Clouds
3:35 PM 33.8 °F 24.8 °F 19.4 °F 56% 29.89 in 10.0 mi WNW 12.7 mph 18.4 mph N/A   Partly Cloudy
3:55 PM 33.8 °F 25.3 °F 19.4 °F 56% 29.90 in 10.0 mi WNW 11.5 mph - N/A   Clear
4:15 PM 32.0 °F 25.6 °F 19.4 °F 60% 29.90 in 10.0 mi WNW 6.9 mph - N/A   Clear
4:35 PM 32.0 °F 25.6 °F 19.4 °F 60% 29.91 in 10.0 mi WNW 6.9 mph - N/A   Clear
4:55 PM 30.2 °F 25.4 °F 19.4 °F 64% 29.91 in 10.0 mi WNW 4.6 mph - N/A   Clear
5:15 PM 30.2 °F 21.9 °F 19.4 °F 64% 29.92 in 10.0 mi WNW 9.2 mph - N/A   Clear
5:35 PM 30.2 °F 20.8 °F 19.4 °F 64% 29.93 in 10.0 mi WNW 11.5 mph - N/A   Clear
5:55 PM 30.2 °F 21.3 °F 19.4 °F 64% 29.94 in 10.0 mi WNW 10.4 mph 16.1 mph N/A   Clear
6:15 PM 28.4 °F 18.5 °F 19.4 °F 69% 29.95 in 10.0 mi WNW 11.5 mph 19.6 mph N/A   Clear
6:35 PM 28.4 °F 19.1 °F 17.6 °F 64% 29.96 in 10.0 mi WNW 10.4 mph - N/A   Clear
6:55 PM 28.4 °F 21.2 °F 17.6 °F 64% 29.96 in 10.0 mi NW 6.9 mph - N/A   Scattered Clouds
7:15 PM 28.4 °F 19.1 °F 19.4 °F 69% 29.96 in 10.0 mi WNW 10.4 mph - N/A   Overcast
7:35 PM 30.2 °F 21.3 °F 19.4 °F 64% 29.97 in 10.0 mi WNW 10.4 mph - N/A   Overcast
7:55 PM 30.2 °F 20.8 °F 19.4 °F 64% 29.97 in 10.0 mi WNW 11.5 mph - N/A   Overcast
8:15 PM 30.2 °F 21.9 °F 19.4 °F 64% 29.97 in 10.0 mi WNW 9.2 mph - N/A   Overcast
8:35 PM 30.2 °F 20.2 °F 17.6 °F 60% 29.98 in 10.0 mi NW 12.7 mph - N/A   Overcast
8:55 PM 30.2 °F 19.3 °F 19.4 °F 64% 29.99 in 10.0 mi WNW 15.0 mph - N/A   Overcast
9:15 PM 30.2 °F 20.8 °F 17.6 °F 60% 30.00 in 10.0 mi NW 11.5 mph 18.4 mph N/A   Overcast
9:35 PM 30.2 °F 19.3 °F 17.6 °F 60% 30.00 in 10.0 mi NNW 15.0 mph 19.6 mph N/A   Overcast
9:55 PM 30.2 °F 22.6 °F 17.6 °F 60% 30.01 in 10.0 mi NW 8.1 mph - N/A   Overcast
10:15 PM 30.2 °F 19.3 °F 17.6 °F 60% 30.02 in 10.0 mi NNW 15.0 mph - N/A   Overcast
10:35 PM 28.4 °F 17.0 °F 15.8 °F 59% 30.03 in 10.0 mi NW 15.0 mph 19.6 mph N/A   Overcast
10:55 PM 28.4 °F 17.5 °F 15.8 °F 59% 30.04 in 10.0 mi WNW 13.8 mph - N/A   Overcast
11:15 PM 28.4 °F 18.0 °F 14.0 °F 55% 30.05 in 10.0 mi NW 12.7 mph - N/A   Overcast
11:35 PM 28.4 °F 19.1 °F 14.0 °F 55% 30.07 in 10.0 mi WNW 10.4 mph - N/A   Mostly Cloudy
11:55 PM 26.6 °F 16.8 °F 14.0 °F 59% 30.08 in 10.0 mi WNW 10.4 mph - N/A   Clear